Location: Jihlava
(49.4000°N, 15.5830°E)
Time: 04:03:29
(UTC+01:00)

ISS - Visible Passes

Search period start: 22 March 2023 00:00
Search period end: 01 April 2023 01:00
Orbit: 414 x 423 km, 51.6° (Epoch: 22 March)

Date Brightness Start Highest point End Pass type
(mag) Time Alt. Az. Time Alt. Az. Time Alt. Az.
22 Mar -3.8 18:41:17 10° WSW 18:44:38 84° SSE 18:48:00 10° ENE visible
22 Mar -3.3 20:18:16 10° W 20:21:35 56° N 20:21:37 56° N visible
23 Mar -3.3 19:30:22 10° W 19:33:41 58° N 19:35:46 20° ENE visible
23 Mar -1.3 21:07:20 10° WNW 21:08:43 23° WNW 21:08:43 23° WNW visible
24 Mar -3.4 18:42:26 10° W 18:45:47 65° N 18:49:07 10° ENE visible
24 Mar -3.6 20:19:27 10° WNW 20:22:47 63° N 20:22:47 63° N visible
25 Mar -3.4 19:31:32 10° WNW 19:34:51 57° N 19:36:50 22° ENE visible
25 Mar -1.4 21:08:23 10° WNW 21:09:46 22° WNW 21:09:46 22° WNW visible
26 Mar -3.9 21:20:27 10° WNW 21:23:46 86° W 21:23:46 86° W visible
27 Mar -3.7 20:32:30 10° WNW 20:35:52 74° NNE 20:37:45 24° E visible
27 Mar -1.3 22:09:27 10° W 22:10:41 19° W 22:10:41 19° W visible
28 Mar -3.3 21:21:22 10° WNW 21:24:36 47° SSW 21:24:40 47° SSW visible
29 Mar -3.6 20:33:19 10° WNW 20:36:39 68° SSW 20:38:39 22° SE visible
29 Mar -0.9 22:10:54 10° W 22:11:35 13° WSW 22:11:35 13° WSW visible
30 Mar -2.0 21:22:24 10° W 21:25:07 23° SW 21:25:34 22° SSW visible
31 Mar -2.5 20:34:08 10° W 20:37:11 33° SSW 20:39:36 14° SSE visible
